Billings, MT

8:53 PM MDT on April 26, 2018 (GMT -0600)
Billings Logan International

Weather History for KBIL - April, 2013

Change the Weather History Date:

Monday, April 1, 2013

  Actual Average Record
Temperature  
Mean Temperature 41 °F 42 °F  
Max Temperature 57 °F 53 °F 72 °F (1991)
Min Temperature 24 °F 31 °F 0 °F (1936)
Degree Days  
Heating Degree Days 24 23  
Month to date heating degree days 24 23  
Since 1 July heating degree days 5427 5833  
Cooling Degree Days 0 0  
Month to date cooling degree days 0 0  
Year to date cooling degree days 0 0  
Moisture  
Dew Point 21 °F    
Average Humidity 54    
Maximum Humidity 81    
Minimum Humidity 26    
Precipitation  
Precipitation 0.00 in 0.05 in 0.55 in (1956)
Month to date precipitation 0.00 0.05  
Year to date precipitation 1.14 2.07  
Snow  
Snow 0.00 in 0.40 in 4.50 in (1999)
Month to date snowfall 0.0 0.4  
Since 1 July snowfall 34.8 45.1  
Snow Depth 0.00 in    
Sea Level Pressure  
Sea Level Pressure 30.14 in    
Wind  
Wind Speed 7 mph (ENE)    
Max Wind Speed 17 mph    
Max Gust Speed 23 mph    
Visibility 10 miles    
Events      
T = Trace of Precipitation, MM = Missing Value Source: NWS Daily Summary

Daily Weather History Graph

Daily Weather History Graph

Search for Another Location

Airport or City:

Astronomy

Apr. 01, 2013 Rise Set
Actual Time 6:53 AM MDT 7:42 PM MDT
Civil Twilight 6:23 AM MDT 8:13 PM MDT
Nautical Twilight 5:47 AM MDT 8:49 PM MDT
Astronomical Twilight 5:10 AM MDT 9:26 PM MDT
Moon 1:07 AM MDT (4/1) 10:29 AM MDT (4/1)
Length of Visible Light 13h 49m
Length of Day
12h 49m
Waning Gibbous, 66% of the Moon is Illuminated
Apr 1
Waning Gibbous
Apr 2
Last Quarter
Apr 10
New
Apr 18
First Quarter
Apr 25
Full

Hourly Weather History & Observations

Time (MDT) Temp. Windchill Dew Point Humidity Pressure Visibility Wind Dir Wind Speed Gust Speed Precip Events Conditions
12:53 AM 35.1 °F 29.3 °F 21.0 °F 57% 30.14 in 10.0 mi North 6.9 mph - N/A   Clear
1:53 AM 33.1 °F 26.9 °F 21.0 °F 61% 30.15 in 10.0 mi North 6.9 mph - N/A   Clear
2:53 AM 32.0 °F 26.4 °F 21.9 °F 66% 30.14 in 10.0 mi North 5.8 mph - N/A   Clear
3:53 AM 30.0 °F 24.1 °F 21.9 °F 72% 30.16 in 10.0 mi North 5.8 mph - N/A   Clear
4:53 AM 26.1 °F 20.5 °F 19.9 °F 78% 30.17 in 10.0 mi NW 4.6 mph - N/A   Clear
5:53 AM 25.0 °F 20.7 °F 19.0 °F 78% 30.18 in 10.0 mi WNW 3.5 mph - N/A   Clear
6:53 AM 28.0 °F 21.7 °F 21.0 °F 75% 30.19 in 10.0 mi SW 5.8 mph - N/A   Partly Cloudy
7:53 AM 32.0 °F - 24.1 °F 73% 30.19 in 10.0 mi Calm Calm - N/A   Partly Cloudy
8:53 AM 32.0 °F 25.6 °F 21.0 °F 64% 30.20 in 10.0 mi SW 6.9 mph - N/A   Partly Cloudy
9:53 AM 36.0 °F 32.1 °F 21.9 °F 57% 30.19 in 10.0 mi SSW 4.6 mph - N/A   Partly Cloudy
10:53 AM 44.1 °F - 24.1 °F 45% 30.18 in 10.0 mi Calm Calm - N/A   Clear
11:53 AM 51.1 °F - 23.0 °F 33% 30.15 in 10.0 mi NE 5.8 mph - N/A   Clear
12:53 PM 52.0 °F - 23.0 °F 32% 30.14 in 10.0 mi ESE 10.4 mph - N/A   Partly Cloudy
1:53 PM 55.0 °F - 23.0 °F 29% 30.13 in 10.0 mi ENE 16.1 mph 21.9 mph N/A   Partly Cloudy
2:53 PM 55.0 °F - 23.0 °F 29% 30.11 in 10.0 mi ESE 6.9 mph 18.4 mph N/A   Partly Cloudy
3:53 PM 55.0 °F - 23.0 °F 29% 30.11 in 10.0 mi ESE 9.2 mph - N/A   Clear
4:53 PM 55.9 °F - 23.0 °F 28% 30.10 in 10.0 mi SE 10.4 mph - N/A   Clear
5:53 PM 55.0 °F - 21.0 °F 27% 30.11 in 10.0 mi ESE 10.4 mph - N/A   Clear
6:53 PM 53.1 °F - 19.9 °F 27% 30.10 in 10.0 mi East 12.7 mph - N/A   Clear
7:53 PM 48.9 °F - 19.9 °F 32% 30.10 in 10.0 mi East 8.1 mph - N/A   Clear
8:53 PM 46.0 °F 41.9 °F 21.0 °F 37% 30.12 in 10.0 mi East 8.1 mph - N/A   Clear
9:53 PM 43.0 °F 39.5 °F 21.0 °F 42% 30.13 in 10.0 mi East 5.8 mph - N/A   Clear
10:53 PM 42.1 °F 37.7 °F 21.0 °F 43% 30.11 in 10.0 mi East 6.9 mph - N/A   Clear
11:53 PM 39.0 °F 33.4 °F 19.9 °F 46% 30.09 in 10.0 mi North 8.1 mph - N/A   Clear